Location: *
(47.7167°N, 1.7333°W)
Time: 08:39:17
(UTC+00:00)

Cosmos 2151 - Pass Details

Date: 09 April 2020
Orbit: 582 x 600 km, 82.5° (Epoch: 23 May)

Event Time Altitude Azimuth Distance (km) Brightness Sun altitude
Rises 21:01:24 0° 355° (N) 2,817 7.1 -20.7°
Reaches altitude 10° 21:03:40 10° 1° (N) 1,913 6.1 -21.0°
Enters shadow 21:07:38 49° 69° (ENE) 758 3.2 -21.5°
